Theta_e
343 342 340 340 341 340 340 340 341 341 342 343 344 345 346 346 346 345 345 344 343 343 343 342 341 341 342 343 343 343 344 344 344 344 343 341 339 340 343 343 343 343 341 340 340 339 339 339 339 339 338 336 336 336 333 328 328 329 329 328 327 327 327 326 326 326 326 328 330 331 331 331 331 330 330 328 328 329 329 329 330 332 332 333 334
344 343 341 341 341 340 340 341 342 343 344 345 345 346 347 346 346 346 345 345 344 344 344 343 341 340 341 343 342 342 342 342 344 344 344 343 340 340 342 344 344 344 343 341 340 339 338 338 338 339 338 337 336 336 336 333 330 330 330 330 329 329 328 327 327 327 326 326 328 330 331 332 332 332 331 330 329 328 328 328 330 331 331 332 333
346 345 344 343 342 341 342 343 344 345 346 347 348 349 348 348 348 347 346 345 345 344 343 342 339 339 341 342 341 340 337 337 340 345 345 344 342 341 341 342 343 344 344 343 342 341 339 339 339 339 339 339 337 336 336 335 334 332 331 331 331 332 330 329 328 328 327 326 327 327 329 330 331 332 332 331 331 329 328 330 332 333 333 333 333
347 347 347 345 343 343 344 343 343 344 345 347 348 347 347 348 348 348 347 345 344 342 340 337 333 333 336 339 340 338 335 333 335 342 346 346 344 343 342 342 342 343 343 343 343 342 341 340 340 339 340 340 339 338 337 336 335 334 333 333 332 334 334 333 331 329 329 328 328 328 328 329 330 331 331 332 332 331 331 333 334 335 335 335 334
346 348 348 346 345 345 344 341 340 343 345 344 343 342 343 345 346 345 344 341 339 335 332 330 329 328 330 333 335 336 336 334 333 335 340 342 342 341 342 343 343 344 343 343 344 344 343 342 340 340 341 341 340 340 339 337 336 335 334 334 334 334 335 336 335 333 331 330 329 329 329 330 330 331 332 332 333 333 334 334 335 335 336 335 335
345 347 348 347 347 346 343 340 339 339 339 338 338 339 339 339 339 339 337 334 331 330 329 328 328 327 327 329 330 331 331 332 333 333 334 334 335 335 337 341 343 343 344 345 345 345 345 344 342 341 341 342 342 341 340 339 337 336 334 334 335 335 335 335 336 336 335 333 331 330 330 330 331 331 332 332 332 333 334 335 335 336 336 336 335
346 348 348 347 348 346 344 342 338 334 334 334 336 336 333 332 332 332 331 331 329 329 328 327 326 326 326 326 327 328 327 327 328 329 330 330 331 331 333 337 341 343 344 345 345 345 345 345 344 343 342 342 342 342 341 341 339 338 336 334 335 336 336 336 336 336 336 336 335 333 331 330 330 330 331 330 331 332 334 334 335 335 335 335 335
347 349 349 348 346 346 345 342 337 334 333 334 335 332 330 329 330 331 331 330 329 328 328 327 326 326 325 325 325 326 326 326 326 326 326 326 328 329 330 334 339 342 343 344 345 345 344 344 344 344 344 343 343 342 342 342 341 339 338 336 335 335 336 337 337 336 336 336 336 336 334 332 330 330 330 330 330 331 332 333 334 334 334 333 333
348 349 348 347 346 346 343 339 335 334 335 335 334 331 329 329 330 332 332 330 328 328 329 328 328 327 327 326 326 326 327 329 330 329 328 329 330 332 333 334 336 336 337 338 339 340 341 340 339 339 341 343 344 343 342 342 342 341 340 338 337 336 335 335 336 337 337 336 336 336 336 335 333 331 330 330 330 330 330 331 331 331 331 331 331
348 348 347 346 345 341 338 336 335 334 334 333 332 332 332 333 335 336 335 332 328 327 328 330 330 330 329 330 329 329 330 332 332 332 332 333 335 336 336 336 337 336 336 336 336 337 338 337 335 336 338 340 343 344 344 344 344 343 342 341 339 337 336 334 334 335 337 337 336 336 335 336 335 333 331 331 330 329 330 330 330 330 329 329 329
348 348 346 343 340 337 336 335 333 331 334 335 335 335 336 337 339 338 337 335 331 328 330 331 331 331 330 329 331 331 331 332 332 333 334 336 337 336 337 339 339 339 340 340 340 340 340 339 339 339 338 338 339 342 344 344 344 343 343 343 342 339 338 337 336 334 334 335 336 336 335 335 335 334 333 332 331 331 330 330 331 330 329 329 329
348 346 344 340 337 336 335 333 329 328 333 336 337 338 339 339 338 336 335 335 332 330 332 333 331 330 329 328 329 330 330 331 333 335 335 336 337 335 335 337 339 340 341 341 342 342 341 342 343 342 341 340 339 340 342 343 343 342 342 343 343 342 340 339 337 337 336 336 335 335 335 335 334 333 333 334 333 332 331 331 331 331 331 330 330
345 343 340 338 335 333 332 330 328 328 329 333 335 337 337 335 333 332 332 332 332 332 334 335 332 330 327 327 328 329 329 333 334 334 335 335 336 334 333 333 334 337 338 337 338 339 340 341 341 342 342 342 342 342 342 343 343 343 342 342 343 343 342 341 339 338 337 337 337 335 334 334 333 333 332 333 333 333 333 332 332 332 331 331 330
344 340 339 336 331 329 328 328 327 328 329 331 332 331 330 330 331 331 330 330 332 333 334 334 332 330 327 326 329 329 330 333 333 331 333 333 332 332 330 329 330 332 333 333 333 333 335 337 337 338 341 340 341 342 343 343 344 343 342 342 342 343 342 342 341 340 339 337 337 337 336 335 334 332 331 331 332 333 333 333 333 333 332 332 331
340 337 335 332 329 330 330 330 329 329 331 330 329 328 329 330 331 331 329 330 332 334 333 332 330 328 327 327 329 329 329 331 330 329 331 331 330 329 329 328 328 328 329 330 330 330 330 332 333 334 337 337 338 339 340 342 343 344 343 343 344 343 342 342 341 341 340 340 338 338 337 337 335 334 332 331 330 330 332 333 333 333 333 333 333
335 333 333 332 333 333 332 331 330 330 330 328 327 329 330 331 330 330 329 330 333 333 331 329 327 326 327 328 329 330 332 330 328 328 329 329 329 330 330 330 330 330 330 330 330 329 329 331 332 334 335 336 336 336 338 340 342 343 343 344 344 344 344 343 342 340 340 341 341 339 338 337 337 336 335 334 332 330 329 330 331 333 333 334 334
333 333 333 334 334 332 328 328 330 330 329 328 329 330 330 330 329 329 328 329 332 333 330 328 328 328 328 329 330 332 332 330 328 328 328 328 329 329 329 329 328 328 328 329 330 330 331 332 333 333 334 335 336 337 339 339 340 340 341 342 343 343 344 343 343 342 340 341 341 340 340 339 338 338 338 337 335 333 331 329 329 329 330 332 333
335 335 335 334 332 328 326 328 329 330 330 331 331 330 329 329 329 329 329 328 330 331 330 328 328 330 330 331 332 331 330 328 328 328 327 327 326 325 325 325 324 324 324 325 326 327 328 329 329 330 330 331 334 336 338 340 340 339 339 340 341 343 343 343 343 343 342 342 341 341 341 340 339 339 339 338 337 336 335 333 331 330 329 329 330
335 335 333 331 329 328 330 329 328 330 331 329 328 327 327 328 329 328 328 328 327 328 327 326 328 331 331 331 330 329 328 328 328 327 325 324 324 323 323 323 322 322 322 322 322 322 323 324 325 326 327 328 329 332 334 337 338 339 339 339 339 340 341 342 342 342 343 343 342 342 341 341 341 340 339 339 340 338 336 336 335 333 332 330 329
333 331 330 330 331 332 331 329 329 330 329 327 327 327 327 328 328 327 327 327 327 326 326 327 329 331 330 329 327 326 327 327 327 325 323 323 323 322 322 322 321 321 321 321 320 320 320 320 321 323 324 326 327 328 330 332 334 336 338 338 339 339 339 340 340 340 341 342 342 343 342 341 342 341 341 340 341 340 338 337 336 336 335 334 331
331 329 329 330 331 331 329 329 330 329 328 327 327 327 327 328 327 327 327 327 327 327 328 330 331 329 328 326 325 324 325 326 326 324 323 323 322 321 321 320 319 320 320 320 319 319 318 318 318 320 321 323 325 326 327 329 330 332 334 336 338 338 337 336 337 338 339 340 342 343 342 342 342 342 341 340 340 341 340 339 337 336 336 336 335
329 328 328 328 329 329 328 329 330 327 326 327 327 328 328 328 328 327 328 328 327 327 328 329 329 328 327 325 324 324 325 327 327 325 323 323 322 321 320 320 318 318 319 319 319 319 318 317 317 318 320 321 322 324 325 326 328 329 331 332 334 335 334 334 334 334 336 337 340 341 341 342 342 342 341 341 339 340 342 341 340 337 336 337 337
325 324 325 328 330 329 329 330 328 325 325 326 326 327 328 327 327 326 326 327 328 327 328 329 329 327 327 325 323 324 325 326 326 325 323 322 321 320 320 320 318 318 318 318 318 319 319 318 317 317 319 319 321 321 322 323 325 327 328 329 330 331 331 331 332 333 334 335 336 337 338 339 341 342 342 343 342 341 341 343 343 341 339 338 338
321 321 324 327 329 329 329 328 325 323 324 324 324 326 326 325 326 326 325 327 327 327 329 330 329 328 326 324 323 324 324 324 324 323 321 320 320 320 320 319 319 318 318 317 317 318 319 319 317 316 317 318 319 320 321 322 323 325 326 327 328 329 329 330 330 331 333 334 335 335 335 336 338 342 344 344 344 343 342 342 342 342 341 341 340
321 321 322 324 324 324 325 325 322 322 323 322 323 326 326 325 325 325 325 325 326 327 328 329 329 328 326 324 324 323 323 323 322 321 320 319 320 320 319 319 319 318 318 318 318 318 318 319 317 316 315 316 317 317 319 320 321 322 323 325 327 328 329 330 330 331 332 334 335 336 336 336 337 340 343 344 343 343 342 342 342 341 340 340 341
321 321 320 320 321 322 323 322 321 320 320 321 323 324 325 325 324 324 324 324 325 327 328 329 329 328 327 325 324 323 323 323 322 321 320 320 320 320 320 320 319 319 319 319 318 318 318 318 317 316 315 315 315 316 316 317 319 320 321 322 324 326 328 329 330 330 332 334 335 336 336 336 336 337 339 341 342 342 342 343 342 342 341 340 340
322 321 320 320 320 321 322 321 321 319 320 321 322 323 324 324 323 324 325 326 326 327 328 329 329 329 328 328 327 325 325 324 323 322 321 321 321 321 320 320 320 320 319 319 318 317 318 318 317 317 315 315 314 314 315 315 317 319 320 321 322 324 325 327 329 330 331 332 334 335 335 335 336 337 337 338 340 342 342 342 343 343 343 341 340
322 321 320 321 322 322 321 321 321 320 321 322 323 324 324 324 324 325 326 328 328 329 329 329 329 329 329 329 329 329 327 326 325 324 323 323 322 322 322 321 321 320 320 319 317 317 317 318 318 317 316 315 314 313 314 313 314 317 319 320 320 321 323 324 327 328 330 331 332 333 333 334 335 337 337 337 338 340 341 341 341 342 343 342 341
320 320 321 322 322 322 322 323 323 323 323 323 323 324 325 325 325 326 327 328 328 328 328 329 329 330 330 329 329 330 329 328 327 325 325 324 324 324 323 322 322 321 321 320 319 317 317 318 318 318 317 316 314 313 313 313 314 315 317 318 319 319 320 322 324 326 328 329 330 331 332 333 334 335 337 337 337 338 339 340 340 341 343 342 341
318 319 320 322 322 324 324 325 326 325 323 323 322 323 324 324 324 325 325 326 327 328 328 328 328 329 329 329 329 329 330 329 328 327 326 325 325 325 325 324 323 323 322 321 320 319 318 318 318 318 317 316 315 314 315 314 314 316 318 318 318 318 318 320 321 323 326 328 329 329 330 331 332 334 335 337 337 337 337 338 339 341 342 342 342
319 321 323 324 324 324 325 325 325 324 324 323 322 321 322 322 323 324 325 326 327 327 327 327 328 329 329 329 328 328 329 329 329 329 328 327 327 327 327 326 325 324 324 323 322 320 320 320 319 319 318 318 318 318 317 315 314 316 318 318 317 318 318 318 320 321 323 326 328 329 329 329 330 331 334 336 337 337 337 338 339 342 342 342 342
324 325 326 327 327 326 325 325 325 326 325 323 323 323 323 324 324 325 326 327 327 326 326 326 327 328 329 329 329 328 329 329 330 330 330 330 329 328 328 328 326 326 326 325 324 323 322 321 320 319 319 320 320 318 316 314 314 317 317 317 317 317 317 317 318 320 322 323 326 328 330 330 329 329 331 334 336 337 338 337 339 342 343 343 342
326 327 328 328 328 328 327 327 327 327 325 325 325 326 326 326 327 327 328 328 328 328 327 327 327 328 329 330 329 329 329 329 329 330 330 330 330 329 329 328 327 327 327 325 325 324 324 323 321 320 321 321 319 317 315 314 315 317 317 316 316 316 317 317 317 319 321 322 324 327 329 330 329 329 329 331 333 336 337 338 338 341 343 343 343
327 327 328 328 328 328 327 327 328 327 326 326 326 327 326 327 327 327 328 328 328 328 327 327 327 327 329 329 329 330 328 328 328 328 328 330 330 329 327 326 326 327 327 326 325 324 324 324 322 321 322 321 319 316 315 314 316 317 316 316 316 316 316 317 317 317 319 321 323 325 328 330 330 330 329 329 331 333 336 337 338 339 341 343 343
327 326 327 328 328 327 327 327 328 327 326 326 327 327 328 328 327 327 327 327 327 327 327 327 326 324 324 325 326 327 328 328 328 327 328 328 328 326 325 325 326 327 327 326 325 325 324 324 323 322 323 321 318 317 316 316 317 317 316 316 316 316 316 316 317 317 318 320 322 324 327 329 331 331 331 330 330 331 333 335 337 338 340 342 343
326 324 325 327 327 328 327 327 327 327 327 327 328 328 328 328 328 326 326 326 327 327 327 326 324 321 321 321 322 323 324 324 324 325 325 325 323 323 323 324 326 326 326 326 326 326 325 324 324 323 324 322 319 317 317 317 317 316 315 316 316 316 316 316 316 317 318 319 321 323 326 329 331 332 332 332 331 331 331 333 335 336 338 341 343
324 324 326 326 327 327 326 326 326 327 328 328 329 329 328 328 327 325 326 327 326 325 323 323 322 321 321 321 322 322 322 321 321 321 321 321 321 321 321 322 323 324 326 327 327 326 326 325 325 325 324 322 319 317 318 318 317 315 315 316 316 316 316 316 317 317 318 318 320 322 325 328 330 331 332 332 332 332 332 333 334 335 336 338 341
323 324 326 326 326 326 326 325 325 326 327 327 328 329 329 327 325 324 326 326 324 322 322 322 323 323 323 323 323 324 323 322 322 321 322 322 322 321 321 320 321 323 325 326 326 326 326 326 325 324 323 321 319 318 318 317 316 316 315 315 316 316 316 317 317 317 319 319 319 320 323 326 330 331 332 332 333 333 334 334 335 336 336 337 338
323 324 326 326 326 326 325 323 323 324 325 326 327 327 326 324 323 324 325 324 322 321 322 324 324 325 325 325 325 325 325 324 323 323 324 324 324 322 320 320 320 322 323 324 325 325 325 325 324 323 321 319 319 319 318 317 316 315 316 316 316 316 317 317 317 318 319 319 320 320 321 324 328 331 332 332 333 334 335 335 336 337 338 337 337
321 322 323 325 325 324 322 321 323 324 325 325 326 325 323 322 322 323 323 322 321 322 324 325 325 325 325 325 325 326 326 325 324 324 323 323 323 321 320 320 320 320 319 320 321 322 322 322 322 322 320 319 319 319 318 317 316 315 315 316 316 317 317 317 317 318 319 320 320 320 321 323 326 330 332 333 333 335 335 335 335 337 339 339 338
320 322 323 325 325 323 321 322 325 326 325 324 323 323 323 322 322 322 321 321 322 324 325 326 326 326 326 326 326 325 325 326 325 325 323 322 321 320 320 320 320 319 317 317 318 318 319 320 321 321 320 319 318 318 318 316 315 315 315 316 317 317 318 317 318 318 319 320 320 320 321 322 324 328 331 332 333 335 336 336 336 336 338 339 339
320 322 324 326 325 322 322 324 327 328 327 325 323 323 323 322 322 322 322 323 324 325 327 327 327 326 326 326 325 322 322 323 324 325 323 321 320 320 321 321 321 320 318 317 318 318 319 320 321 321 320 319 318 318 317 316 316 315 315 316 316 318 318 318 318 318 319 319 320 320 321 322 323 326 329 331 333 334 335 336 336 336 337 339 339
320 322 325 326 324 322 323 325 327 328 327 327 326 325 324 324 323 323 323 324 325 326 327 327 327 326 326 325 323 320 319 321 323 324 323 321 321 321 321 321 322 320 318 318 318 318 319 320 321 320 320 318 319 319 318 316 316 315 315 316 316 317 318 318 319 319 319 319 320 320 321 321 322 324 328 331 332 333 334 336 336 336 337 338 339
320 322 324 325 323 323 325 325 325 326 326 327 328 327 326 325 325 325 325 325 325 326 327 327 327 326 325 324 322 319 319 320 322 324 323 321 320 320 320 321 321 321 320 319 319 318 319 320 321 320 319 319 319 319 318 316 316 316 316 316 317 317 318 318 318 319 319 320 320 320 321 321 321 322 325 329 332 333 334 335 335 336 336 336 337
320 322 323 324 323 324 325 325 325 324 325 326 328 329 328 327 325 325 325 325 326 327 327 327 327 326 325 324 321 319 319 320 322 323 322 320 320 320 320 321 322 322 322 320 319 319 320 321 321 320 320 320 320 320 318 317 316 316 316 316 317 317 317 318 318 318 319 320 320 320 320 321 321 321 323 328 331 333 334 335 334 335 336 336 336
321 322 323 324 324 323 324 323 324 325 325 326 329 330 330 329 328 327 326 326 327 327 327 327 326 326 325 323 321 319 319 320 321 322 322 321 320 320 321 322 322 323 322 321 320 321 322 322 322 321 321 320 320 320 320 317 316 317 316 316 317 317 317 318 318 318 319 320 320 320 320 321 322 322 323 326 330 333 334 335 334 335 336 337 336
322 322 322 323 324 323 324 323 324 325 326 327 330 331 331 330 329 328 327 327 327 327 327 326 326 326 325 321 320 319 320 320 320 321 321 321 322 321 322 322 323 323 323 321 320 321 322 323 322 322 322 321 321 321 321 318 317 317 316 316 316 317 317 318 318 318 320 320 320 321 321 321 322 322 323 325 329 332 335 335 335 335 336 338 337
321 322 322 323 323 324 324 325 325 326 327 329 330 331 330 330 329 328 327 327 327 327 326 326 326 325 323 320 319 320 320 319 319 320 320 321 322 322 323 323 323 323 323 321 321 321 322 322 322 322 322 322 322 322 320 319 318 317 316 316 316 317 317 318 319 319 320 320 321 321 321 322 322 323 323 325 328 332 335 336 336 336 336 338 338
322 322 322 323 323 324 325 325 327 328 329 330 329 329 329 329 328 327 327 327 327 326 325 325 325 325 322 320 320 320 319 318 317 318 319 321 322 323 324 324 324 323 322 321 320 321 321 321 321 321 321 321 321 320 320 319 318 317 316 316 316 317 318 318 319 319 320 321 321 322 322 322 323 323 324 325 328 332 336 337 337 336 337 337 338
323 322 323 323 324 324 325 327 328 329 331 331 329 328 328 329 328 327 326 326 326 325 325 325 325 324 323 321 320 319 318 316 316 316 318 320 322 324 324 324 323 322 321 321 320 320 320 320 320 320 320 320 320 320 320 319 318 316 316 316 316 317 318 319 319 320 320 321 322 322 322 323 324 324 324 325 327 332 336 338 338 338 338 337 337
325 324 325 325 325 325 326 328 330 331 331 330 329 328 328 328 327 326 326 326 326 325 325 325 324 324 323 321 320 319 318 316 315 316 318 320 321 323 323 323 322 321 321 321 320 320 320 320 320 319 319 319 319 319 319 319 317 316 316 316 317 317 318 319 319 320 321 322 323 323 323 324 324 325 324 324 327 332 336 338 338 339 338 338 337
Wind_Speed
6 4 3 2 2 3 5 6 7 9 9 10 11 11 11 10 11 11 12 11 10 12 12 11 12 13 13 12 11 12 12 12 12 12 10 10 10 10 11 11 12 13 15 16 17 18 19 19 18 17 16 16 16 16 15 15 16 17 17 17 17 17 17 17 17 17 17 17 17 17 16 16 15 15 15 14 14 14 13 13 13 12 12 12 11
6 5 3 3 3 4 6 7 9 10 11 11 12 12 12 12 12 13 13 14 15 16 15 14 14 14 14 12 11 12 12 13 13 14 13 12 11 12 12 12 13 14 16 17 17 18 19 20 19 18 18 17 16 17 16 16 16 17 17 17 17 17 17 17 18 18 18 18 18 18 17 17 17 16 16 15 15 14 14 14 13 13 12 12 12
7 6 4 4 5 5 6 8 9 10 11 12 12 12 12 12 13 14 14 16 17 17 16 16 15 14 14 12 11 11 11 11 13 14 14 13 13 14 14 14 14 15 17 18 19 20 19 19 20 20 20 19 18 18 18 17 17 17 17 18 18 18 18 18 18 18 18 18 18 18 18 18 18 17 17 16 15 15 15 15 14 14 13 13 12
8 7 6 5 5 6 7 8 8 9 10 10 10 11 12 12 12 12 12 13 14 14 15 17 16 16 15 13 12 10 10 9 10 13 15 15 15 15 16 16 16 16 17 19 19 21 21 20 21 21 21 21 20 19 19 18 18 18 18 18 19 19 19 19 19 19 19 19 18 19 19 19 18 18 17 17 16 16 16 16 15 15 14 14 14
9 8 7 7 6 7 8 8 9 9 9 8 8 10 10 10 9 8 8 9 11 13 15 16 16 16 15 15 14 12 12 10 9 10 12 14 16 16 17 18 18 18 19 20 20 21 22 23 24 24 24 22 21 21 21 20 19 18 18 19 19 20 20 20 20 20 20 20 19 19 19 19 19 18 18 18 18 17 17 17 16 16 16 15 15
9 9 9 8 7 7 8 9 10 11 11 10 9 8 7 7 7 7 8 9 10 12 13 14 14 14 14 15 14 14 14 13 12 11 11 12 14 16 17 18 19 20 20 21 22 22 23 24 25 27 26 24 22 23 22 21 21 20 19 19 20 20 21 21 22 22 22 21 21 20 20 20 20 19 19 19 19 19 19 18 18 17 17 17 17
10 10 10 9 8 8 8 9 11 12 12 11 9 7 6 6 7 7 8 8 10 11 13 14 14 14 13 13 13 13 13 13 13 13 12 13 13 14 15 16 18 19 20 20 21 21 20 22 24 27 28 25 23 23 23 23 22 21 21 20 20 21 21 22 23 23 23 23 22 22 22 22 21 21 20 20 20 20 20 19 19 19 18 18 18
12 13 12 11 10 10 10 11 12 12 11 9 7 6 6 7 7 7 7 8 9 10 11 12 12 11 11 11 12 12 12 11 11 10 10 11 12 12 14 15 16 17 18 19 19 19 19 20 22 25 27 26 25 24 23 24 24 23 23 23 22 21 22 23 23 23 24 24 24 23 23 23 23 23 22 21 21 21 21 21 20 20 19 19 19
14 14 13 12 10 10 12 12 11 10 8 7 6 7 8 8 7 7 7 7 8 9 10 10 10 10 9 9 10 10 10 10 9 8 8 8 9 10 11 13 14 15 16 17 18 18 17 19 21 22 22 24 26 26 25 24 25 24 24 25 24 23 23 23 23 24 24 25 25 25 25 24 24 24 24 23 22 22 22 22 21 21 20 20 20
15 15 13 11 10 9 11 10 9 8 7 7 6 8 9 8 7 7 7 7 7 8 8 9 10 10 9 8 8 8 8 7 7 6 6 7 7 7 8 9 10 11 12 13 13 14 15 16 20 21 20 21 24 26 27 27 29 28 26 26 27 26 24 23 23 24 24 25 26 26 27 27 26 25 25 25 24 24 23 23 23 22 22 21 21
15 15 12 7 7 8 8 8 8 8 8 7 7 9 10 8 7 6 7 7 8 8 8 9 10 10 10 9 7 7 6 5 5 4 4 4 4 5 6 7 7 7 7 8 8 10 11 13 15 17 19 21 22 24 26 27 30 31 30 30 30 28 26 25 24 24 24 25 26 27 27 28 28 27 26 26 26 26 25 24 24 23 23 22 22
12 11 8 5 6 7 7 8 8 9 8 9 10 10 9 7 7 7 8 8 8 9 9 10 10 11 10 7 5 5 4 2 2 3 3 2 3 5 6 6 6 5 5 6 7 7 8 10 12 13 16 18 21 23 24 24 27 29 31 33 34 31 28 26 26 25 26 25 25 26 27 28 29 29 29 28 28 27 27 26 26 25 24 24 23
6 6 6 5 7 7 8 9 10 11 11 11 11 10 7 7 8 8 9 10 9 9 10 11 10 12 10 6 4 4 2 2 3 5 4 3 5 5 6 7 7 7 7 7 8 8 9 10 10 11 12 13 16 19 21 23 26 28 30 33 34 33 31 29 27 26 27 27 27 27 27 27 28 30 30 30 30 29 29 28 28 27 26 25 24
6 6 6 7 9 10 10 11 12 13 13 12 12 10 8 9 9 9 10 10 10 8 9 9 10 12 12 10 7 4 2 2 3 7 5 3 5 7 8 9 9 10 10 11 12 12 12 11 11 10 10 10 11 12 14 17 21 25 28 31 32 32 32 31 30 29 28 28 28 29 29 28 28 29 30 31 31 31 31 30 30 29 28 27 26
8 8 9 10 12 12 11 12 12 12 12 12 11 10 9 9 9 10 10 10 9 7 7 8 9 11 11 12 11 9 5 3 6 8 4 4 6 8 9 9 10 11 11 12 14 14 14 13 11 11 10 9 10 10 10 10 12 17 23 27 29 30 32 31 30 30 30 30 30 29 30 30 29 29 29 31 31 32 32 32 31 31 30 29 28
11 11 12 13 12 11 12 13 11 11 11 10 10 10 10 10 10 11 11 10 8 5 5 7 8 9 9 10 12 11 9 10 13 9 5 7 8 7 8 8 9 9 9 11 12 14 15 14 13 12 11 11 11 11 10 9 9 10 15 21 24 26 29 31 31 31 31 32 32 31 30 30 31 30 30 30 31 32 32 33 33 32 32 31 30
12 13 13 12 11 12 12 11 10 9 9 8 9 9 9 10 10 10 10 9 8 6 6 7 7 7 7 7 8 8 9 14 16 9 6 9 9 9 9 8 9 8 8 9 10 12 13 14 14 14 13 13 13 12 11 10 10 10 12 15 19 23 26 28 31 32 32 33 32 33 33 32 31 31 31 31 31 31 32 32 32 33 33 32 32
13 13 13 12 12 11 9 7 6 6 6 7 7 7 7 8 8 8 8 8 8 8 8 8 7 6 6 5 5 5 9 12 13 12 11 10 9 10 9 9 9 9 8 9 9 10 11 13 14 14 14 14 14 14 13 12 12 13 14 14 15 20 23 25 28 31 32 33 33 34 35 34 33 32 32 32 32 32 32 32 32 32 32 32 32
13 13 12 11 10 8 6 5 4 5 5 6 6 6 7 7 7 7 7 7 7 9 9 8 6 5 5 6 5 6 7 8 9 13 15 14 11 10 10 10 10 9 9 9 10 10 10 11 12 13 14 15 15 15 16 16 15 15 15 15 14 16 19 21 24 27 30 32 32 34 35 35 35 35 33 33 33 33 33 33 32 32 32 32 32
11 11 10 8 7 5 5 4 4 4 5 5 5 6 6 6 6 6 6 6 7 7 7 6 4 3 3 4 5 6 7 6 6 8 12 16 16 13 13 12 10 10 10 10 12 13 13 13 12 13 13 14 15 15 16 17 18 18 17 16 16 16 18 20 22 24 27 30 31 31 33 34 36 37 36 34 34 34 34 34 33 33 32 32 32
9 8 7 6 6 6 5 4 4 4 4 4 4 4 4 4 4 5 5 5 5 5 4 3 2 2 2 3 5 6 7 6 6 8 10 14 16 18 18 17 14 12 12 12 14 15 17 17 15 14 13 13 14 15 15 17 18 20 20 19 19 19 20 21 23 24 25 28 30 30 31 33 34 36 36 35 35 36 35 35 34 34 33 32 32
10 9 8 8 8 7 6 5 4 5 4 4 4 3 3 3 3 3 4 4 4 3 2 1 2 1 2 4 6 7 7 7 7 10 12 13 16 19 19 19 19 17 16 16 16 16 17 18 17 16 15 13 13 14 15 16 17 19 21 21 22 22 22 23 24 25 25 27 29 31 32 33 33 35 36 36 36 37 37 36 35 34 34 33 33
12 10 9 9 9 8 7 5 5 5 5 5 4 3 3 3 3 3 3 3 3 3 3 2 2 2 3 5 6 7 8 8 9 12 14 15 17 19 18 17 20 20 20 20 19 17 17 17 17 18 17 16 14 14 15 15 17 18 20 21 23 23 24 24 24 25 26 27 29 31 32 34 35 34 34 35 36 37 38 39 38 36 35 34 34
12 10 10 10 10 9 8 6 6 6 6 5 5 5 4 3 3 3 3 3 3 4 3 2 2 3 4 5 6 7 8 9 10 12 14 16 18 19 19 18 20 21 22 21 20 19 18 17 17 17 17 18 17 17 17 17 17 18 20 21 22 23 24 25 26 26 27 27 29 31 32 34 35 35 33 33 34 35 36 38 39 38 37 36 35
10 9 10 11 10 8 7 6 6 7 7 6 6 6 5 4 3 4 4 4 4 5 5 4 3 4 6 6 6 8 9 9 10 12 14 16 17 19 20 20 21 23 23 23 22 21 19 18 18 17 17 18 19 20 20 21 20 19 20 22 22 23 25 26 27 27 28 28 29 30 32 33 34 35 35 34 34 34 34 37 38 39 38 38 36
11 10 10 10 8 7 6 6 7 8 7 7 7 6 6 5 4 4 4 5 5 5 6 6 6 7 8 8 9 10 10 11 11 12 14 15 17 19 21 22 23 24 25 25 24 23 21 19 19 18 19 20 20 21 22 23 23 22 22 22 23 24 25 27 29 29 29 29 30 30 31 32 34 35 36 36 35 35 34 36 38 38 38 38 37
11 11 10 9 8 7 7 7 8 7 7 7 8 7 7 6 6 6 6 6 6 5 6 7 7 8 9 10 11 12 12 13 13 13 14 16 16 18 20 23 25 27 28 28 27 25 23 21 21 20 21 23 23 23 24 24 24 24 24 24 24 25 26 27 29 31 31 31 31 31 31 32 34 35 37 37 37 36 35 36 38 39 38 37 38
12 12 12 10 9 8 8 7 6 6 6 7 8 8 8 8 8 8 7 7 7 7 7 8 9 10 10 11 12 14 15 15 15 15 15 16 17 17 19 21 24 28 30 30 31 30 26 24 24 23 23 25 26 25 26 26 26 26 26 26 26 26 27 28 29 31 33 33 33 34 33 33 34 35 37 38 38 38 37 37 38 39 39 38 38
14 14 13 12 10 9 8 6 5 6 7 8 8 9 9 9 9 10 9 9 9 9 9 10 11 11 12 13 14 15 16 16 16 16 17 17 18 18 19 20 22 25 28 30 33 32 28 26 27 27 26 26 27 26 27 28 28 28 28 28 28 28 28 28 30 31 33 35 36 36 37 36 36 36 38 39 40 40 39 39 39 39 40 40 39
13 13 12 11 9 8 6 6 6 8 9 9 9 10 10 11 11 11 10 10 10 10 10 11 12 13 14 15 15 15 17 18 18 18 18 18 19 20 21 21 22 24 26 29 33 33 30 28 27 28 28 28 28 28 29 30 30 30 30 31 31 31 31 29 30 31 32 34 36 37 38 39 38 38 39 40 40 41 41 41 41 41 41 41 40
12 11 10 8 7 6 5 6 7 9 9 10 10 10 10 10 10 10 9 9 10 10 11 12 13 14 15 16 16 16 17 19 20 20 21 20 20 21 21 22 23 24 26 28 32 35 33 30 29 29 29 30 30 30 31 31 32 32 33 34 34 34 34 32 30 31 32 34 36 38 38 40 41 40 40 41 42 42 43 43 42 41 41 41 40
12 10 8 6 5 5 5 5 6 7 8 8 8 8 8 8 7 7 7 8 10 11 12 13 14 15 17 17 18 18 18 20 21 22 23 22 22 22 23 24 24 25 27 28 32 36 35 31 30 29 29 31 32 32 33 33 33 34 36 37 37 36 36 36 33 31 31 32 34 37 38 39 41 42 42 42 42 43 44 44 43 41 40 40 40
11 9 7 6 5 5 4 4 4 6 7 6 6 7 7 6 6 7 8 10 12 13 14 15 15 16 18 18 19 19 19 21 23 24 24 25 25 24 24 25 24 25 27 29 31 36 37 33 31 30 30 32 34 33 34 36 37 37 39 40 40 39 39 38 36 34 31 31 33 35 38 38 39 42 44 44 44 43 43 44 44 42 40 40 41
11 9 7 6 5 5 4 4 4 5 5 6 6 7 7 7 8 10 11 12 13 15 16 16 16 17 17 17 18 19 19 21 23 23 24 26 26 24 23 24 23 25 28 30 31 34 38 36 32 31 32 34 34 33 34 38 40 41 43 44 43 43 42 40 38 36 33 31 31 33 36 38 38 40 43 45 45 44 44 44 44 43 42 41 41
11 9 8 7 6 5 5 5 5 4 5 6 7 8 9 10 11 11 12 12 14 15 15 15 15 16 16 16 17 18 20 21 22 22 23 25 24 23 23 23 24 26 28 30 32 34 36 36 34 32 33 35 35 34 35 38 40 43 46 47 47 46 44 42 40 37 34 31 31 32 34 37 38 39 41 44 46 45 45 44 45 45 44 43 43
11 10 9 8 7 7 6 6 6 5 6 7 8 10 11 12 13 13 12 12 13 13 13 13 14 14 15 15 16 17 19 21 22 22 22 23 22 22 23 25 25 26 26 29 33 33 33 36 36 34 34 36 35 35 36 38 40 44 47 49 49 48 46 43 41 38 35 32 30 31 32 35 38 38 40 42 44 45 45 45 45 46 46 45 44
12 11 10 8 8 8 7 6 7 8 8 9 11 12 12 13 14 13 11 11 11 11 11 11 12 14 15 15 15 15 17 20 21 22 22 21 21 22 23 24 24 24 25 29 32 33 33 36 37 36 35 35 35 34 35 38 42 46 48 50 50 49 48 45 42 39 36 34 32 31 32 34 37 38 39 40 42 43 44 44 45 46 47 48 47
13 12 11 10 9 8 8 8 9 10 10 12 12 12 13 14 13 11 10 10 10 10 11 12 13 15 16 17 16 16 17 19 20 21 21 21 21 22 23 23 23 22 24 26 28 30 31 33 35 36 35 34 34 35 34 37 43 47 50 52 53 51 50 48 46 41 37 35 33 32 32 33 36 37 38 39 41 42 42 43 44 45 47 49 50
14 13 11 10 10 9 9 9 10 11 12 13 13 13 13 13 12 11 11 11 11 12 13 15 16 17 18 18 18 18 18 19 19 20 22 22 23 23 23 23 22 22 23 24 24 25 27 29 31 32 33 33 34 34 35 37 42 46 48 51 54 54 51 49 48 44 40 38 35 33 32 32 34 37 37 38 40 41 42 43 43 44 45 47 50
14 13 12 11 11 11 10 10 10 10 12 13 13 12 11 11 11 12 12 13 13 14 15 17 18 18 19 19 20 21 21 21 21 21 22 22 23 24 24 23 22 22 23 24 24 25 25 27 28 29 31 33 34 34 35 38 42 45 45 47 52 54 52 50 50 47 43 41 37 34 32 31 33 36 36 37 40 41 42 43 44 44 44 44 48
14 13 12 12 12 12 12 12 11 10 10 10 10 9 9 10 11 12 13 14 15 16 17 18 18 19 19 20 21 22 23 24 24 23 22 22 23 25 24 22 22 23 23 24 25 25 26 27 28 30 31 32 33 34 37 39 42 44 45 45 49 53 51 50 51 47 43 42 41 38 33 30 30 33 36 37 39 41 42 43 44 45 44 43 45
15 14 13 13 13 13 13 14 13 11 10 9 9 8 8 9 11 12 14 15 16 17 18 19 19 19 20 21 22 22 24 24 24 23 22 21 21 23 23 22 22 23 23 24 24 25 26 27 29 30 30 32 33 34 37 40 41 43 44 44 48 51 50 49 50 47 43 41 41 41 37 31 28 29 33 35 37 39 41 43 44 45 45 44 43
15 15 14 14 15 14 14 14 14 13 12 11 10 9 9 10 12 14 16 17 17 18 19 19 19 20 22 22 22 22 22 23 22 22 21 21 20 21 21 21 21 22 23 24 24 25 26 27 28 29 30 32 33 34 37 40 42 43 44 45 46 49 48 48 48 48 45 40 39 42 43 37 32 31 32 33 35 37 39 42 43 44 45 44 43
16 16 16 16 15 14 14 14 14 13 13 13 12 12 12 13 14 16 18 19 19 20 20 20 21 23 24 24 22 21 21 21 21 21 22 22 21 20 19 19 20 22 23 24 25 26 27 27 28 29 31 33 35 35 36 39 43 44 46 46 46 46 47 47 47 48 47 42 40 44 47 41 36 34 33 33 34 35 36 40 42 43 44 44 44
18 18 17 17 16 14 13 13 13 13 14 13 13 14 15 16 17 18 20 21 22 22 22 23 24 24 25 25 23 22 21 20 20 21 23 23 23 23 21 21 21 22 23 24 26 27 27 27 29 31 32 34 36 36 36 37 42 46 47 47 47 46 47 47 48 49 47 43 41 44 47 44 39 37 36 35 34 33 33 37 40 41 42 43 44
21 21 19 18 17 15 13 13 13 14 14 14 15 16 17 19 20 21 23 24 24 24 24 26 26 25 25 25 24 22 21 21 21 21 23 24 25 25 24 23 23 23 24 26 26 27 27 27 29 32 33 35 37 39 38 37 40 45 47 48 48 48 50 49 49 49 46 42 40 41 45 45 40 38 38 36 33 31 31 33 37 38 39 40 42
23 22 20 19 17 16 15 14 16 16 16 15 17 18 19 20 21 23 24 25 26 26 27 27 27 26 25 24 24 23 22 22 22 22 23 24 25 26 26 25 25 26 27 27 27 27 26 26 28 32 34 36 38 39 39 39 40 44 47 47 48 50 52 51 49 49 46 42 38 38 42 43 38 37 39 36 32 31 30 30 33 35 36 37 38
24 23 21 19 17 16 16 18 20 19 17 17 18 19 21 21 22 23 25 26 27 28 27 27 28 27 25 24 24 23 22 23 23 23 24 24 25 25 25 26 27 29 29 27 26 26 26 26 28 31 34 36 37 37 38 40 42 44 46 47 48 50 51 50 49 49 47 43 38 36 39 40 36 36 37 34 32 31 29 29 30 32 33 34 35
25 24 22 20 18 17 18 20 21 21 20 19 19 20 20 20 20 21 23 25 26 26 26 26 27 27 26 25 25 23 22 23 23 24 25 24 23 24 25 27 29 30 29 28 26 27 27 27 28 29 31 32 33 34 38 40 40 41 43 47 49 50 50 49 49 49 48 43 39 36 36 37 34 33 34 33 32 30 28 28 29 30 30 31 33
25 24 22 20 19 19 21 22 24 25 23 21 21 21 20 19 18 19 21 23 24 25 25 26 27 27 27 26 25 24 24 24 24 24 24 23 23 25 26 28 29 29 29 28 27 28 27 26 26 26 27 29 30 32 36 35 34 37 40 45 48 49 48 49 49 49 47 44 40 35 34 34 32 31 31 31 31 30 28 27 28 28 28 29 31
26 24 23 22 22 23 25 27 27 25 21 20 21 21 20 19 19 19 20 22 23 24 24 26 27 28 27 25 24 24 25 25 24 23 22 22 24 25 25 26 28 28 28 28 29 29 28 26 25 26 27 28 30 32 33 32 32 36 39 42 48 48 49 50 50 47 43 41 38 32 31 32 31 30 29 28 28 29 28 26 27 28 27 28 30
Wind_Direction
210 211 231 255 294 306 311 308 304 306 306 308 306 305 302 295 290 292 292 284 289 302 301 300 304 305 301 293 284 278 276 274 269 262 257 250 248 250 247 242 239 237 232 229 231 234 234 233 235 236 235 235 232 230 230 231 231 231 232 231 228 223 220 219 219 220 222 225 228 230 232 232 233 235 236 235 233 234 235 234 233 235 239 241 242
220 226 247 276 299 310 312 307 305 305 304 304 303 303 303 299 293 290 289 283 287 300 304 302 303 306 304 299 289 282 276 270 263 255 250 245 241 241 243 244 240 238 236 233 232 234 236 236 236 238 237 236 237 235 234 234 234 235 236 235 234 230 227 225 222 221 222 223 227 230 232 234 236 238 239 238 235 235 234 232 232 234 238 241 243
226 233 251 278 298 309 307 303 304 302 301 300 300 302 302 299 294 291 289 286 289 297 301 301 303 305 304 303 297 291 285 272 260 248 243 241 237 237 238 240 242 242 244 241 236 234 235 236 239 243 242 239 240 239 237 237 237 238 239 239 238 236 234 232 229 226 224 224 225 227 231 234 236 239 240 239 238 236 232 231 231 233 237 240 243
234 239 255 281 299 305 300 299 301 295 295 296 295 296 294 292 291 293 295 293 294 298 299 301 303 301 298 299 299 298 293 282 266 249 243 242 240 239 237 237 240 243 248 248 243 237 235 234 236 242 244 243 243 242 239 240 241 241 242 242 242 241 238 237 236 234 231 229 227 227 229 232 235 237 238 239 239 237 233 234 236 238 241 243 245
245 248 259 278 293 298 298 302 305 300 300 301 296 294 293 294 297 302 305 300 301 301 301 303 304 302 298 296 295 294 291 286 279 260 250 249 248 248 244 239 238 240 244 249 249 244 239 237 236 238 242 243 244 245 243 242 244 245 246 245 245 245 244 242 241 240 238 236 234 232 231 231 233 235 237 239 239 238 237 239 242 244 246 248 248
256 258 262 273 285 292 297 305 307 305 304 305 302 300 301 304 305 303 301 301 305 305 304 305 306 306 302 298 298 296 291 284 279 271 262 258 257 257 254 247 243 243 245 249 252 249 245 244 242 240 242 244 244 247 248 246 245 247 250 250 248 246 247 247 245 244 243 242 240 239 238 237 235 236 237 238 240 240 241 243 246 249 250 251 250
264 263 262 264 271 278 288 299 301 298 296 296 296 297 303 304 298 294 297 305 310 310 310 308 306 304 301 300 301 300 297 291 283 277 271 266 265 266 265 260 252 249 250 253 257 258 256 255 252 249 249 250 249 250 253 252 251 251 252 252 251 249 248 248 249 248 247 246 245 243 243 243 241 239 238 239 240 241 243 245 249 251 252 252 252
264 261 256 256 265 272 279 290 292 287 285 283 281 287 300 300 294 293 298 306 308 310 313 312 309 305 303 302 303 304 304 304 299 292 286 278 273 270 268 265 261 257 255 256 261 265 267 267 264 260 258 259 257 254 253 255 254 253 254 253 252 251 251 250 250 251 250 249 248 247 246 246 246 243 241 240 240 242 244 246 248 251 253 254 254
263 259 255 261 271 272 275 284 286 283 278 274 277 289 298 299 299 302 303 306 309 311 315 317 316 316 317 312 306 306 307 311 312 306 298 291 286 282 278 274 270 267 265 264 267 272 277 276 268 264 265 265 262 256 253 253 252 250 253 254 252 252 252 253 253 254 253 252 251 250 249 248 248 247 245 243 242 242 244 246 248 250 252 255 256
257 258 262 268 270 271 277 282 284 287 282 274 281 289 294 300 302 306 308 312 317 317 316 319 321 323 325 320 311 308 309 313 315 307 299 296 301 308 305 298 288 282 278 276 278 284 286 280 271 267 267 267 266 261 258 258 256 254 252 252 253 251 250 252 254 256 256 255 254 253 252 251 249 249 248 247 246 245 245 247 249 250 252 254 256
255 261 264 258 262 272 277 277 285 291 280 264 271 286 296 303 300 305 312 311 318 324 326 326 326 325 324 319 314 313 314 316 318 317 309 303 321 335 331 322 309 302 303 299 294 290 286 284 282 277 270 266 266 264 262 260 259 257 254 253 252 250 249 249 251 254 256 258 258 257 255 254 252 251 250 249 249 249 248 249 250 252 253 254 256
263 257 248 239 266 280 277 280 296 300 284 263 268 284 295 301 302 309 310 307 318 329 332 330 328 324 321 320 321 321 321 332 19 9 344 322 325 330 333 333 326 320 324 321 312 301 298 303 301 292 280 272 267 265 264 260 257 257 256 255 254 252 251 250 249 251 253 256 259 260 259 257 255 253 252 251 250 251 251 251 253 254 255 256 257
246 224 221 251 282 293 286 288 301 303 293 277 278 288 288 294 306 314 311 311 324 334 330 326 326 326 325 331 339 349 18 116 64 9 339 313 311 311 317 319 316 311 309 309 307 307 314 320 314 305 300 289 277 271 269 265 261 259 256 255 256 254 253 252 251 251 252 253 255 257 260 260 258 255 254 253 252 252 252 252 253 255 256 257 258
224 231 248 278 297 301 294 295 301 300 294 285 287 294 297 304 310 313 311 315 330 340 330 323 327 328 328 332 334 350 43 131 36 355 330 310 318 315 313 312 308 303 299 298 297 298 304 310 309 309 309 302 292 282 274 269 265 261 256 255 256 253 252 253 253 253 253 254 253 253 255 258 259 258 256 255 255 254 253 253 254 254 256 257 258
243 257 272 287 297 298 295 296 296 292 290 289 293 301 310 316 314 313 313 317 330 344 333 324 327 324 325 331 329 331 337 326 345 350 340 333 331 323 319 315 311 306 300 298 296 294 296 300 300 298 298 296 296 295 288 283 276 266 258 256 258 256 255 253 252 253 254 255 255 254 253 253 255 257 257 256 256 256 256 256 255 255 256 257 258
254 265 274 281 285 284 285 286 282 282 286 291 299 305 311 316 316 316 315 315 325 336 329 320 321 321 325 329 326 331 337 333 335 344 357 349 345 346 345 338 329 319 309 303 300 298 298 300 301 297 294 291 291 292 291 293 292 280 264 258 258 258 258 258 255 252 251 254 255 255 253 252 253 254 256 257 256 256 256 256 257 257 257 257 258
261 265 268 269 272 276 279 277 275 279 280 280 285 290 298 305 309 310 308 306 310 316 311 307 310 315 323 325 324 330 332 332 335 338 348 351 358 4 3 358 351 342 330 319 310 304 299 299 300 299 297 293 291 289 287 288 291 290 283 274 266 260 257 257 257 254 252 253 255 256 256 253 252 252 253 255 256 256 256 256 256 257 257 257 258
259 258 259 261 267 273 272 268 268 270 268 267 271 277 287 293 295 298 299 295 293 293 291 296 306 306 305 309 317 321 323 331 335 330 331 344 2 2 359 360 357 351 342 334 324 316 306 299 297 296 294 290 287 285 283 282 282 284 286 286 280 270 261 255 256 258 257 256 255 256 257 256 254 252 252 253 254 255 255 255 255 255 256 257 257
248 251 255 258 262 263 261 265 267 263 270 278 283 289 290 289 289 291 290 286 278 275 279 291 304 297 290 298 310 324 331 337 337 333 330 334 348 356 353 357 1 357 351 347 339 332 324 312 303 298 294 289 284 278 274 272 271 271 273 276 278 276 269 262 260 260 259 259 258 256 256 256 254 251 250 250 252 254 255 254 254 254 254 255 255
246 252 255 254 248 248 262 277 281 279 287 294 296 296 293 290 288 285 281 274 267 267 277 295 301 287 284 304 325 336 339 338 337 341 334 329 336 347 347 348 1 5 358 358 355 348 344 336 325 312 302 295 289 282 275 270 267 265 263 264 265 266 267 267 266 264 260 259 258 257 257 257 255 251 249 249 250 252 254 254 254 254 253 253 253
259 261 255 245 239 247 263 272 284 291 291 293 293 289 286 283 279 279 274 265 264 269 280 295 289 280 296 327 343 337 335 334 331 340 339 332 335 342 344 341 347 358 357 355 355 353 351 349 344 333 318 304 296 290 284 276 271 267 263 260 258 259 260 261 263 264 262 257 254 254 256 257 257 255 252 251 252 251 251 252 253 253 253 253 252
264 260 251 245 244 251 259 263 282 293 291 291 290 276 260 253 252 258 264 268 278 287 291 268 235 264 311 339 343 334 334 333 328 336 341 338 334 337 342 339 336 342 347 346 346 348 348 348 348 346 340 328 312 301 295 288 280 274 268 262 257 255 256 257 259 261 261 258 255 254 254 255 256 257 255 253 252 252 251 250 250 251 251 252 251
255 250 245 241 243 251 258 267 286 294 290 284 274 253 235 230 239 250 269 288 302 310 304 262 236 273 313 334 335 327 327 327 326 332 336 334 329 328 334 333 330 332 336 337 338 342 345 344 346 349 352 351 343 329 316 303 293 284 278 271 263 256 253 253 255 257 259 259 257 256 256 255 254 254 255 254 251 250 251 251 250 249 248 248 249
245 246 239 235 241 252 256 262 280 285 278 270 258 243 236 240 255 273 296 310 315 319 311 277 268 294 314 329 329 319 319 321 322 325 327 327 324 322 325 327 326 327 330 331 333 338 342 342 343 346 349 352 354 352 344 330 315 300 289 281 272 263 256 251 249 251 255 256 257 257 257 256 254 250 250 252 252 251 251 252 251 249 248 247 247
245 249 239 236 243 248 248 252 270 274 265 259 253 245 247 255 264 281 301 311 317 320 312 297 295 301 309 319 319 314 315 317 318 319 321 323 320 318 320 321 322 323 326 328 330 333 336 339 341 342 343 346 349 351 350 345 336 322 305 291 281 272 263 256 250 248 248 250 253 255 256 255 254 250 247 248 251 252 252 251 250 249 248 247 246
244 248 239 236 239 239 242 248 259 261 254 251 250 248 250 250 251 265 284 295 304 315 314 304 299 297 301 308 310 309 308 309 312 315 316 318 317 314 316 317 318 320 323 326 328 330 333 334 337 339 340 341 343 344 343 342 341 337 326 308 293 282 273 265 258 252 248 246 247 250 253 254 253 252 250 248 248 250 251 252 252 251 249 248 246
242 244 236 229 228 232 241 248 250 250 248 248 250 252 253 248 247 253 265 281 291 302 311 306 298 293 292 295 298 300 300 301 305 308 311 314 313 311 312 315 318 320 322 324 324 327 331 331 331 337 339 338 338 338 337 337 336 335 335 326 310 295 283 274 266 260 255 249 245 245 247 250 251 251 250 249 248 247 246 248 251 252 250 247 246
240 239 232 226 227 233 241 246 245 249 256 253 251 254 255 252 250 253 261 276 286 293 300 299 297 294 290 291 293 295 296 298 300 303 306 310 311 308 309 313 316 318 320 321 322 323 328 329 328 333 338 336 334 335 335 334 332 330 331 331 325 312 297 285 274 266 260 255 249 245 243 245 248 250 249 249 248 246 244 244 247 249 248 246 245
233 231 228 225 225 228 236 246 257 272 275 266 260 259 256 255 255 257 266 277 287 293 295 296 297 296 294 294 295 296 296 297 300 301 302 305 308 307 307 308 310 313 315 315 316 318 322 326 326 329 334 333 331 333 334 334 332 330 329 329 329 324 313 297 284 274 265 259 254 250 246 243 243 246 247 247 247 246 244 244 245 246 245 244 245
224 220 219 217 215 221 234 253 268 275 275 270 268 266 263 263 265 268 275 282 290 295 297 296 296 295 295 296 297 298 298 298 300 300 299 300 304 306 305 305 304 307 310 309 309 312 316 321 324 325 328 330 328 328 329 331 332 331 330 329 328 327 322 310 295 284 275 265 259 256 252 247 244 243 244 246 246 245 245 244 244 243 242 241 243
212 208 207 205 209 221 237 256 266 270 271 269 270 271 270 270 272 276 281 284 289 293 294 294 294 293 294 294 295 297 298 298 299 298 297 295 298 300 300 299 299 301 304 304 302 306 312 317 319 321 324 326 326 324 324 327 329 330 330 329 328 327 324 318 306 293 283 274 264 258 256 253 248 244 243 244 245 245 244 243 243 241 239 238 240
199 197 197 196 204 215 230 251 264 271 269 266 269 273 271 269 273 282 287 287 288 291 294 297 299 298 296 293 292 293 296 298 297 295 293 290 290 293 295 295 293 294 298 299 297 301 307 311 314 317 321 323 323 323 323 325 327 329 329 329 328 326 323 320 314 301 289 281 271 262 258 256 252 247 244 243 243 244 243 242 241 239 236 236 238
189 186 186 186 192 205 223 242 262 270 264 261 267 268 263 267 277 284 286 285 286 293 299 302 303 301 297 292 290 290 293 296 295 294 293 290 287 292 297 296 294 293 293 292 293 297 301 305 309 313 318 321 320 321 324 325 326 328 328 327 327 325 323 321 316 308 296 285 277 267 260 257 254 250 246 243 243 243 242 241 240 237 234 234 236
186 181 182 185 192 209 225 239 255 263 263 262 263 263 265 272 276 278 281 285 290 297 301 301 302 302 298 291 289 288 290 292 293 294 296 292 290 295 298 296 296 294 289 287 288 291 296 301 306 309 315 318 317 320 325 325 326 328 327 326 325 324 322 320 316 309 301 291 282 273 263 258 255 252 248 245 242 242 242 242 240 238 235 234 234
188 186 189 196 207 227 239 249 257 260 258 254 252 260 267 272 277 281 287 293 298 300 299 299 303 306 302 297 293 290 287 287 289 292 293 293 294 296 296 296 296 294 291 288 287 288 292 298 302 307 313 316 316 319 324 324 325 327 326 326 325 324 321 319 316 309 301 293 285 276 267 259 255 252 250 247 243 241 242 242 241 239 236 234 234
194 193 199 209 220 236 249 258 266 266 256 252 256 263 269 277 285 292 295 296 298 299 298 301 307 308 305 304 302 297 292 290 290 290 288 289 292 293 294 295 295 294 294 292 288 288 291 293 297 303 310 313 314 318 321 323 325 326 326 326 327 325 321 318 315 311 303 294 285 278 270 261 255 252 250 248 244 242 241 242 242 240 238 235 234
199 202 208 217 225 237 250 260 268 266 257 256 263 267 275 285 290 291 290 290 294 298 302 307 310 307 305 305 306 304 298 295 294 292 289 288 290 292 293 294 295 294 294 293 292 292 291 291 294 299 304 308 311 315 320 323 325 325 327 328 327 324 321 318 316 313 307 298 287 279 272 262 256 253 251 248 245 242 241 241 241 241 239 237 235
201 207 212 222 232 241 252 261 267 266 262 262 265 270 280 286 286 281 278 282 290 297 306 311 309 305 303 301 301 300 297 297 296 294 293 292 293 294 295 296 296 295 294 293 292 291 290 290 292 296 301 306 309 313 319 324 324 325 327 327 326 323 321 317 314 312 310 303 292 282 276 266 257 254 251 248 245 243 241 241 240 240 241 239 236
204 209 216 227 238 245 249 256 264 267 264 263 264 271 279 281 277 272 274 280 287 294 302 307 306 302 300 298 297 295 294 294 294 293 292 292 293 294 296 297 297 295 294 293 290 288 287 287 290 294 299 305 308 311 318 323 323 325 326 324 322 321 320 316 313 311 310 307 298 286 278 270 260 254 252 248 244 243 242 240 239 239 240 240 238
208 211 217 230 241 242 243 249 259 262 261 261 263 269 277 277 272 271 275 280 284 290 297 302 302 299 297 297 296 294 292 291 291 292 291 291 290 291 293 295 293 293 293 292 290 289 288 288 290 294 299 303 305 309 316 322 323 324 326 322 318 317 317 314 311 310 310 310 305 294 282 271 262 255 254 251 245 243 242 239 238 238 238 239 237
213 213 220 233 240 240 242 249 255 256 259 263 264 269 276 278 275 275 278 283 287 291 294 297 298 297 294 294 293 291 289 287 287 289 290 291 289 289 292 292 291 291 292 291 291 291 291 292 293 295 297 299 303 309 316 322 323 323 324 321 316 315 314 311 309 308 308 307 306 301 290 278 268 258 255 254 248 243 243 240 238 237 236 237 236
218 218 224 235 239 241 245 248 249 252 259 264 265 269 279 283 283 281 283 287 290 290 291 293 294 292 290 290 292 292 288 285 283 284 288 291 291 290 292 291 291 292 292 291 291 292 292 292 292 294 295 296 302 310 314 320 324 323 322 319 315 314 312 307 305 305 305 304 303 301 295 286 278 266 257 256 252 246 244 241 238 237 236 236 236
221 222 229 235 239 242 245 245 246 252 261 265 267 272 277 280 283 284 286 288 289 287 288 290 290 288 288 291 296 297 291 285 281 281 284 288 290 291 292 292 292 292 291 291 292 293 292 291 290 291 292 294 301 307 312 319 323 322 320 318 314 313 310 305 303 301 301 301 299 296 293 287 283 274 261 254 254 250 246 243 239 238 237 235 235
224 227 230 233 238 241 244 247 249 256 263 267 270 273 275 277 279 281 284 286 286 286 286 287 287 287 289 294 300 300 294 286 280 279 280 283 286 288 289 291 292 291 290 290 292 294 293 291 289 289 290 295 300 304 310 318 321 321 322 319 315 312 308 303 299 296 296 298 296 292 290 286 282 276 263 252 252 252 248 244 240 238 237 236 235
229 231 232 234 237 239 244 251 254 259 264 268 271 273 275 277 276 276 277 280 282 283 283 285 286 287 291 297 300 300 295 287 281 279 279 281 284 285 285 287 291 293 292 291 291 293 293 291 288 288 292 295 297 300 307 313 318 321 322 319 316 313 308 302 298 296 296 295 291 287 285 283 281 276 264 251 248 251 248 243 240 239 238 237 236
233 234 233 234 235 235 240 249 253 257 262 267 272 275 275 275 274 272 272 274 276 278 280 284 286 287 292 296 298 299 295 288 285 282 281 282 284 285 284 284 290 295 294 293 292 293 295 295 290 289 292 293 294 298 303 307 314 320 322 319 317 314 311 306 302 300 298 293 288 283 279 278 278 275 264 249 244 249 248 242 239 238 238 237 235
235 235 235 235 236 236 241 250 254 258 264 270 275 276 274 274 272 269 269 271 273 276 281 286 287 287 291 295 297 298 295 291 290 289 286 285 283 283 283 283 289 294 296 297 298 299 300 298 292 289 290 292 293 296 298 300 307 317 321 320 318 317 315 310 305 301 298 293 288 279 272 273 274 271 261 248 243 247 246 241 238 235 235 236 234
236 238 237 236 238 240 245 253 258 261 267 274 277 277 276 275 271 267 268 271 274 279 284 287 287 287 290 294 295 297 296 295 295 293 290 286 282 280 280 282 287 292 296 300 302 301 299 296 291 290 291 294 296 297 296 297 303 315 321 319 320 321 317 310 305 302 297 293 288 277 268 268 270 267 259 246 241 245 244 240 236 233 233 234 232
239 240 239 238 240 244 250 257 262 266 271 274 276 277 277 276 273 273 275 276 278 282 285 287 286 286 288 292 293 295 297 299 299 295 291 286 281 278 279 282 287 292 297 301 300 298 298 297 295 295 296 301 302 301 300 299 306 318 321 319 322 323 316 308 305 302 297 292 286 277 268 265 265 264 258 245 238 241 243 238 233 230 230 231 230
242 243 243 243 243 248 254 260 266 270 273 273 274 277 277 276 277 281 281 280 281 283 285 285 284 284 287 289 291 294 299 302 302 298 292 286 282 281 281 285 291 295 300 301 299 299 302 302 301 302 305 309 309 308 306 306 313 324 324 323 326 323 314 309 305 301 297 291 283 272 262 259 260 259 254 246 238 240 241 238 233 229 228 227 227
246 247 247 246 249 253 257 261 266 271 276 278 277 278 278 278 281 284 282 282 284 286 287 285 283 284 287 288 290 295 300 304 304 300 295 290 287 285 286 290 296 299 302 303 305 308 308 307 307 310 313 316 316 316 315 312 318 325 327 330 332 325 315 311 307 300 293 286 280 269 255 253 255 252 246 241 238 239 241 238 233 230 227 226 225